Weather in Altynnoye

Russia / Perm Krai     56°49′05″N   57°08′41″E
temp.,
°C
wind,
m/s
gust,
m/s
humid.,
%
clouds,
%
prec.,
mm/h
press.,
hPa
HPBL,
m
27 february, sat
sat2723:00−19se3590100 0.0 1021100
02:00−20se378860 0.0 1018134
05:00−20ese489375 0.0 1015165
08:00−20ese51088100 0.0 1012234
11:00−17ese51192100 0.1 1010288
14:00−13ese61192100 0.4 1008506
17:00−12se51092100 0.7 1008542
20:00−16ese51192100 0.2 1008392
28 february, sun
sun2823:00−17ese5119399 0.2 1007375
02:00−16e51193100 0.1 1006386
05:00−15e51193100 0.1 1006418
08:00−15e51192100 0.1 1005411
11:00−13e51092100 0.1 1005490
14:00−10e5991100 0.2 1006604
17:00−10ene5891100 0.6 1007635
20:00−13ene4993100 0.3 1009519
1 march, mon
mon123:00−15ene4993100 0.4 1011437
02:00−17ene489599 0.1 1012380
05:00−18ene3796100 0.4 1014320
08:00−18ne379699 0.1 1016311
11:00−16ene359398 0.2 1017332
14:00−13ne2491100 0.1 1017427
17:00−13nne2390100 0.1 1017454
20:00−19n119998 0.0 101820
2 march, tue
tue223:00−20ssw1110059 0.0 101820
02:00−20sw2310027 0.0 101725
05:00−21ssw3710056 0.0 1016133
08:00−21ssw410100100 0.0 1015245
11:00−18ssw51195100 0.1 1013341
14:00−13ssw5118999 0.0 1010481
17:00−12ssw5119099 0.0 1008484
20:00−14ssw51293100 0.4 1007514
3 march, wed
wed323:00−14ssw51292100 0.6 1006495
02:00−15ssw41194100 0.3 1005445
05:00−15s3994100 0.4 1004347
08:00−14s3795100 0.3 1003310
11:00−11s2494100 0.9 1002324
14:00−7sse1391100 0.7 1001388
17:00−6nnw1195100 1.3 1000182
20:00−9n2397100 0.5 100071